CZ-6A R/B, 62803

Orbit data source: Space-Track

CZ-6A R/B, 62803 is space debris in LEO originally from a launch on Thu, 23 Jan 2025 UTC launched from the Taiyaun Space Center, China (TSC). Debris objects in space refer to the collection of defunct objects orbiting the Earth. Examples of debris include non-operational satellites, rocket bodies, and fragments generated from explosions, collisions, or faulty payload assembly.

Loading next visibility...
Identifier
62803, 2025-016U
Orbit
LEO
Country
Flag of CNCN / PRC
Related business
Manufacturer
SAST
Mission
Spacecraft
Bus & Motor
CZ-6A STAGE 2, YF-115
Mass
~6,000 kg wet, ~6,000 kg dry
Launch date (UTC)
2025-01-23 (9 months ago)
Launch vehicle
Unknown
Launch site
Taiyaun Space Center, China (TSC)
Object type
Payload
Rocket body
Debris
Shape & HBR
Unknown shape, 4.4 m
Radar Cross Section
Large (>1 m²)

Expand to show TLE details & history
Last TLE update: 13 hours ago

TLE from 13 hours ago
0 CZ-6A R/B
1 62803U 25016U   25286.97055837  .00000469  00000-0  10458-3 0  9990
2 62803  89.0042 105.9432 0098433 290.7650  68.3033 14.52290385 38254
Epoch: 2025-10-13T23:17Z
TLE epoch observation values (Epoch: 2025-10-13T23:17:36.243Z)
Latitude
0.00004°
Longitude
93.77649°
Altitude
696.045 km
Speed
7.521 km/s
True Right ascension
07h 03m 46s
True Declination
0° 00' 00"
Sunlit
Object was in daylight at epoch
Visualization orbit readout
Latitude
Unknown
Longitude
Unknown
Altitude
Unknown
Speed
Unknown
Apparent Right ascension
Unknown
Apparent Declination
Unknown
Sunlit
N/A
Visualization observer readout
Local Sidereal Time
07:03:46
Azimuth
Unknown
Elevation
Unknown
Doppler factor
Unknown
Orbital elements
Apogee altitude
784.903 km
Perigee altitude
645.262 km
Semi-major axis
7,093.219 km
Eccentricity
0.00984
Inclination
89.0042°
RAAN
105.9432°
Arg. of periapsis
290.765°
True anomaly
69.35608°
Mean anomaly
68.3033°
Eccentric anomaly
68.82922°
Mean motion
3.63311 °/min
Orbital period
99.09 mins
BSTAR
0.00010458
Loading maneuver chart data...
Computing Atmospheric mass density...
Loading historical data...
Loading historical data...
Loading historical data...
Loading historical data...
Loading historical data...
Loading historical data...
Loading historical data...

Documentation

Showing up to 5 results
|